Time,TemperatureF,DewpointF,PressureIn,WindDirection,WindDirectionDegrees,WindSpeedMPH,WindSpeedGustMPH,Humidity,HourlyPrecipIn,Conditions,Clouds,dailyrainin,SoftwareType,DateUTC
2013-04-02 00:00:00,37.0,21.9,30.04,West,263,0.0,0.0,54,0.00,,,0.04,Wunderground v.1.13,2013-04-02 04:00:00,
2013-04-02 00:10:00,36.7,22.0,30.05,West,263,0.0,0.0,55,0.00,,,0.00,Wunderground v.1.13,2013-04-02 04:10:00,
2013-04-02 00:19:00,36.4,22.2,30.05,West,263,0.0,0.0,56,0.00,,,0.00,Wunderground v.1.13,2013-04-02 04:19:00,
2013-04-02 00:30:00,36.1,22.3,30.05,West,263,0.0,0.0,57,0.00,,,0.00,Wunderground v.1.13,2013-04-02 04:30:00,
2013-04-02 00:40:00,35.7,23.6,30.05,West,263,0.0,0.0,61,0.00,,,0.00,Wunderground v.1.13,2013-04-02 04:40:00,
2013-04-02 00:50:00,35.3,23.2,30.05,West,263,0.0,0.0,61,0.00,,,0.00,Wunderground v.1.13,2013-04-02 04:50:00,
2013-04-02 01:00:00,34.8,24.2,30.05,West,263,0.0,0.0,65,0.00,,,0.00,Wunderground v.1.13,2013-04-02 05:00:00,
2013-04-02 01:10:00,34.3,24.1,30.06,West,263,0.0,0.0,66,0.00,,,0.00,Wunderground v.1.13,2013-04-02 05:10:00,
2013-04-02 01:20:00,33.9,24.1,30.06,West,263,0.0,0.0,67,0.00,,,0.00,Wunderground v.1.13,2013-04-02 05:20:00,
2013-04-02 01:29:00,33.6,25.2,30.06,West,263,0.0,0.0,71,0.00,,,0.00,Wunderground v.1.13,2013-04-02 05:29:00,
2013-04-02 01:30:00,33.7,25.6,30.06,West,270,0.0,1.0,72,0.00,,,-99.99,WeatherLink 6.0.2,2013-04-02 05:30:00,
2013-04-02 01:40:00,33.1,25.4,30.06,West,263,0.0,0.0,73,0.00,,,0.00,Wunderground v.1.13,2013-04-02 05:40:00,
2013-04-02 01:49:00,32.2,25.8,30.06,West,263,1.0,1.0,77,0.00,,,0.00,Wunderground v.1.13,2013-04-02 05:49:00,
2013-04-02 02:00:00,32.0,25.9,30.06,West,263,0.0,0.0,78,0.00,,,0.00,Wunderground v.1.13,2013-04-02 06:00:00,
2013-04-02 02:10:00,32.1,24.7,30.06,West,263,0.0,0.0,74,0.00,,,0.00,Wunderground v.1.13,2013-04-02 06:10:00,
2013-04-02 02:20:00,32.0,24.3,30.06,West,263,0.0,0.0,73,0.00,,,0.00,Wunderground v.1.13,2013-04-02 06:20:00,
2013-04-02 02:30:00,31.9,24.6,30.06,West,263,0.0,0.0,74,0.00,,,0.00,Wunderground v.1.13,2013-04-02 06:30:00,
2013-04-02 02:40:00,31.7,24.7,30.06,West,263,0.0,0.0,75,0.00,,,0.00,Wunderground v.1.13,2013-04-02 06:40:00,
2013-04-02 02:50:00,31.4,25.6,30.06,West,263,0.0,0.0,79,0.00,,,0.00,Wunderground v.1.13,2013-04-02 06:50:00,
2013-04-02 03:00:00,31.2,25.7,30.06,West,263,0.0,0.0,80,0.00,,,0.00,Wunderground v.1.13,2013-04-02 07:00:00,
2013-04-02 03:10:00,31.0,24.6,30.06,West,263,0.0,0.0,77,0.00,,,0.00,Wunderground v.1.13,2013-04-02 07:10:00,
2013-04-02 03:20:00,30.9,23.3,30.06,West,263,0.0,0.0,73,0.00,,,0.00,Wunderground v.1.13,2013-04-02 07:20:00,
2013-04-02 03:30:00,30.8,24.7,30.06,West,263,0.0,0.0,78,0.00,,,0.00,Wunderground v.1.13,2013-04-02 07:30:00,
2013-04-02 03:40:00,30.5,23.8,30.06,West,263,0.0,0.0,76,0.00,,,0.00,Wunderground v.1.13,2013-04-02 07:40:00,
2013-04-02 03:50:00,30.3,24.9,30.06,West,263,0.0,0.0,80,0.00,,,0.00,Wunderground v.1.13,2013-04-02 07:50:00,
2013-04-02 03:59:00,29.9,25.4,30.07,West,263,0.0,0.0,83,0.00,,,0.00,Wunderground v.1.13,2013-04-02 07:59:00,
2013-04-02 04:00:00,29.9,26.2,30.07,North,-999,0.0,0.0,86,0.00,,,-99.99,WeatherLink 6.0.2,2013-04-02 08:00:00,
2013-04-02 04:10:00,29.3,25.9,30.07,West,263,0.0,0.0,87,0.00,,,0.00,Wunderground v.1.13,2013-04-02 08:10:00,
2013-04-02 04:20:00,29.0,25.9,30.07,West,263,0.0,0.0,88,0.00,,,0.00,Wunderground v.1.13,2013-04-02 08:20:00,
2013-04-02 04:30:00,29.0,25.9,30.07,West,263,1.0,1.0,88,0.00,,,0.00,Wunderground v.1.13,2013-04-02 08:30:00,
2013-04-02 04:40:00,28.9,25.8,30.07,WNW,283,1.0,1.0,88,0.00,,,0.00,Wunderground v.1.13,2013-04-02 08:40:00,
2013-04-02 04:50:00,30.0,22.7,30.08,WSW,244,1.0,2.0,74,0.00,,,0.00,Wunderground v.1.13,2013-04-02 08:50:00,
2013-04-02 04:59:00,31.1,22.8,30.08,WSW,251,1.0,1.0,71,0.00,,,0.00,Wunderground v.1.13,2013-04-02 08:59:00,
2013-04-02 05:00:00,31.0,24.0,30.08,WSW,247,1.0,6.0,75,0.00,,,-99.99,WeatherLink 6.0.2,2013-04-02 09:00:00,
2013-04-02 05:10:00,30.5,22.5,30.08,West,278,1.0,1.0,72,0.00,,,0.00,Wunderground v.1.13,2013-04-02 09:10:00,
2013-04-02 05:20:00,30.1,23.8,30.09,West,278,0.0,0.0,77,0.00,,,0.00,Wunderground v.1.13,2013-04-02 09:20:00,
2013-04-02 05:30:00,29.2,24.1,30.10,West,278,0.0,2.0,81,0.00,,,0.00,Wunderground v.1.13,2013-04-02 09:30:00,
2013-04-02 05:40:00,29.4,23.1,30.10,West,269,1.0,1.0,77,0.00,,,0.00,Wunderground v.1.13,2013-04-02 09:40:00,
2013-04-02 05:50:00,29.8,21.9,30.11,West,269,1.0,1.0,72,0.00,,,0.00,Wunderground v.1.13,2013-04-02 09:50:00,
2013-04-02 06:00:00,30.0,21.4,30.11,West,269,1.0,1.0,70,0.00,,,0.00,Wunderground v.1.13,2013-04-02 10:00:00,
2013-04-02 06:09:00,30.1,21.5,30.12,West,273,1.0,1.0,70,0.00,,,0.00,Wunderground v.1.13,2013-04-02 10:09:00,
2013-04-02 06:20:00,29.8,20.5,30.12,West,260,1.0,1.0,68,0.00,,,0.00,Wunderground v.1.13,2013-04-02 10:20:00,
2013-04-02 06:30:00,29.8,20.5,30.13,WSW,238,1.0,1.0,68,0.00,,,0.00,Wunderground v.1.13,2013-04-02 10:30:00,
2013-04-02 06:40:00,29.8,19.8,30.13,West,272,1.0,1.0,66,0.00,,,0.00,Wunderground v.1.13,2013-04-02 10:40:00,
2013-04-02 06:49:00,29.7,19.7,30.14,West,272,1.0,1.0,66,0.00,,,0.00,Wunderground v.1.13,2013-04-02 10:49:00,
2013-04-02 07:00:00,29.6,19.6,30.15,West,272,0.0,0.0,66,0.00,,,0.00,Wunderground v.1.13,2013-04-02 11:00:00,
2013-04-02 07:10:00,29.5,19.2,30.16,West,272,0.0,1.0,65,0.00,,,0.00,Wunderground v.1.13,2013-04-02 11:10:00,
2013-04-02 07:20:00,29.7,17.9,30.16,SW,216,1.0,1.0,61,0.00,,,0.00,Wunderground v.1.13,2013-04-02 11:20:00,
2013-04-02 07:30:00,29.5,18.4,30.17,West,263,1.0,1.0,63,0.00,,,0.00,Wunderground v.1.13,2013-04-02 11:30:00,
2013-04-02 07:40:00,29.7,17.9,30.17,WSW,247,1.0,1.0,61,0.00,,,0.00,Wunderground v.1.13,2013-04-02 11:40:00,
2013-04-02 07:50:00,29.7,16.7,30.18,WSW,255,1.0,2.0,58,0.00,,,0.00,Wunderground v.1.13,2013-04-02 11:50:00,
2013-04-02 07:59:00,29.8,16.8,30.19,West,266,0.0,0.0,58,0.00,,,0.00,Wunderground v.1.13,2013-04-02 11:59:00,
2013-04-02 08:00:00,29.8,16.8,30.19,West,270,0.0,2.0,58,0.00,,,-99.99,WeatherLink 6.0.2,2013-04-02 12:00:00,
2013-04-02 08:10:00,30.1,16.3,30.20,West,266,0.0,0.0,56,0.00,,,0.00,Wunderground v.1.13,2013-04-02 12:10:00,
2013-04-02 08:20:00,30.6,15.5,30.19,West,266,0.0,1.0,53,0.00,,,0.00,Wunderground v.1.13,2013-04-02 12:20:00,
2013-04-02 08:30:00,30.9,16.6,30.20,West,259,1.0,1.0,55,0.00,,,0.00,Wunderground v.1.13,2013-04-02 12:30:00,
2013-04-02 08:39:00,31.4,18.3,30.20,West,259,0.0,0.0,58,0.00,,,0.00,Wunderground v.1.13,2013-04-02 12:39:00,
2013-04-02 08:50:00,31.9,19.2,30.20,West,259,1.0,1.0,59,0.00,,,0.00,Wunderground v.1.13,2013-04-02 12:50:00,
2013-04-02 08:59:00,32.3,18.8,30.20,SSW,209,1.0,2.0,57,0.00,,,0.00,Wunderground v.1.13,2013-04-02 12:59:00,
2013-04-02 09:00:00,32.2,18.2,30.20,WSW,247,1.0,3.0,56,0.00,,,-99.99,WeatherLink 6.0.2,2013-04-02 13:00:00,
2013-04-02 09:10:00,32.8,17.5,30.20,NNE,28,2.0,2.0,53,0.00,,,0.00,Wunderground v.1.13,2013-04-02 13:10:00,
2013-04-02 09:20:00,33.4,16.7,30.20,West,279,1.0,3.0,50,0.00,,,0.00,Wunderground v.1.13,2013-04-02 13:20:00,
2013-04-02 09:30:00,33.8,17.6,30.20,WNW,282,2.0,2.0,51,0.00,,,0.00,Wunderground v.1.13,2013-04-02 13:30:00,
2013-04-02 09:40:00,34.2,18.4,30.20,WSW,252,2.0,4.0,52,0.00,,,0.00,Wunderground v.1.13,2013-04-02 13:40:00,
2013-04-02 09:50:00,34.2,17.9,30.20,South,173,3.0,3.0,51,0.00,,,0.00,Wunderground v.1.13,2013-04-02 13:50:00,
2013-04-02 10:00:00,34.8,18.9,30.20,South,172,2.0,2.0,52,0.00,,,0.00,Wunderground v.1.13,2013-04-02 14:00:00,
2013-04-02 10:10:00,35.3,17.5,30.21,WSW,251,2.0,3.0,48,0.00,,,0.00,Wunderground v.1.13,2013-04-02 14:10:00,
2013-04-02 10:20:00,35.6,18.3,30.21,West,278,2.0,3.0,49,0.00,,,0.00,Wunderground v.1.13,2013-04-02 14:20:00,
2013-04-02 10:29:00,36.0,16.2,30.21,WNW,282,4.0,4.0,44,0.00,,,0.00,Wunderground v.1.13,2013-04-02 14:29:00,
2013-04-02 10:30:00,36.0,16.2,30.21,West,270,4.0,12.0,44,0.00,,,-99.99,WeatherLink 6.0.2,2013-04-02 14:30:00,
2013-04-02 10:40:00,36.0,16.2,30.21,West,262,3.0,3.0,44,0.00,,,0.00,Wunderground v.1.13,2013-04-02 14:40:00,
2013-04-02 10:50:00,36.2,15.8,30.21,WNW,288,4.0,6.0,43,0.00,,,0.00,Wunderground v.1.13,2013-04-02 14:50:00,
2013-04-02 10:59:00,36.2,16.9,30.21,WSW,237,4.0,4.0,45,0.00,,,0.00,Wunderground v.1.13,2013-04-02 14:59:00,
2013-04-02 11:00:00,36.3,17.0,30.20,West,270,3.0,9.0,45,0.00,,,-99.99,WeatherLink 6.0.2,2013-04-02 15:00:00,
2013-04-02 11:10:00,37.2,17.3,30.21,WSW,244,3.0,5.0,44,0.00,,,0.00,Wunderground v.1.13,2013-04-02 15:10:00,
2013-04-02 11:19:00,37.7,17.7,30.21,WSW,243,3.0,5.0,44,0.00,,,0.00,Wunderground v.1.13,2013-04-02 15:19:00,
2013-04-02 11:30:00,37.7,17.2,30.21,West,265,5.0,9.0,43,0.00,,,0.00,Wunderground v.1.13,2013-04-02 15:30:00,
2013-04-02 11:40:00,38.4,18.4,30.21,WNW,284,4.0,4.0,44,0.00,,,0.00,Wunderground v.1.13,2013-04-02 15:40:00,
2013-04-02 11:50:00,38.4,17.3,30.21,WSW,253,5.0,5.0,42,0.00,,,0.00,Wunderground v.1.13,2013-04-02 15:50:00,
2013-04-02 12:00:00,39.5,17.7,30.20,SW,217,3.0,3.0,41,0.00,,,0.00,Wunderground v.1.13,2013-04-02 16:00:00,
2013-04-02 12:10:00,40.3,17.3,30.20,SW,225,2.0,2.0,39,0.00,,,0.00,Wunderground v.1.13,2013-04-02 16:10:00,
2013-04-02 12:20:00,40.6,15.7,30.21,WSW,254,4.0,4.0,36,0.00,,,0.00,Wunderground v.1.13,2013-04-02 16:20:00,
2013-04-02 12:30:00,40.0,17.0,30.20,South,169,3.0,3.0,39,0.00,,,0.00,Wunderground v.1.13,2013-04-02 16:30:00,
2013-04-02 12:40:00,40.2,18.3,30.19,WNW,296,3.0,3.0,41,0.00,,,0.00,Wunderground v.1.13,2013-04-02 16:40:00,
2013-04-02 12:49:00,41.4,17.0,30.19,West,259,3.0,5.0,37,0.00,,,0.00,Wunderground v.1.13,2013-04-02 16:49:00,
2013-04-02 13:00:00,41.9,16.9,30.19,WSW,250,3.0,4.0,36,0.00,,,0.00,Wunderground v.1.13,2013-04-02 17:00:00,
2013-04-02 13:10:00,41.9,15.5,30.18,SSE,154,3.0,3.0,34,0.00,,,0.00,Wunderground v.1.13,2013-04-02 17:10:00,
2013-04-02 13:20:00,42.0,16.3,30.18,SSE,149,3.0,3.0,35,0.00,,,0.00,Wunderground v.1.13,2013-04-02 17:20:00,
2013-04-02 13:30:00,43.1,19.2,30.17,WSW,257,3.0,4.0,38,0.00,,,0.00,Wunderground v.1.13,2013-04-02 17:30:00,
2013-04-02 13:40:00,42.9,16.4,30.17,South,187,4.0,4.0,34,0.00,,,0.00,Wunderground v.1.13,2013-04-02 17:40:00,
2013-04-02 13:50:00,43.5,15.5,30.16,SW,233,3.0,6.0,32,0.00,,,0.00,Wunderground v.1.13,2013-04-02 17:50:00,
2013-04-02 13:59:00,44.2,16.2,30.16,SW,227,3.0,6.0,32,0.00,,,0.00,Wunderground v.1.13,2013-04-02 17:59:00,
2013-04-02 14:00:00,43.8,15.8,30.16,WSW,247,5.0,14.0,32,0.00,,,-99.99,WeatherLink 6.0.2,2013-04-02 18:00:00,
2013-04-02 14:10:00,43.6,17.0,30.16,WNW,292,7.0,7.0,34,0.00,,,0.00,Wunderground v.1.13,2013-04-02 18:10:00,
2013-04-02 14:19:00,44.3,17.7,30.16,SW,221,5.0,5.0,34,0.00,,,0.00,Wunderground v.1.13,2013-04-02 18:19:00,
2013-04-02 14:30:00,45.4,15.7,30.15,SE,144,2.0,3.0,30,0.00,,,0.00,Wunderground v.1.13,2013-04-02 18:30:00,
2013-04-02 14:40:00,45.1,15.5,30.15,South,172,3.0,3.0,30,0.00,,,0.00,Wunderground v.1.13,2013-04-02 18:40:00,
2013-04-02 14:50:00,44.9,15.3,30.14,WSW,250,4.0,4.0,30,0.00,,,0.00,Wunderground v.1.13,2013-04-02 18:50:00,
2013-04-02 14:59:00,45.6,16.7,30.14,SE,130,3.0,4.0,31,0.00,,,0.00,Wunderground v.1.13,2013-04-02 18:59:00,
2013-04-02 15:00:00,45.5,15.8,30.14,SE,135,3.0,8.0,30,0.00,,,-99.99,WeatherLink 6.0.2,2013-04-02 19:00:00,
2013-04-02 15:10:00,46.0,15.5,30.14,SSE,166,3.0,3.0,29,0.00,,,0.00,Wunderground v.1.13,2013-04-02 19:10:00,
2013-04-02 15:20:00,45.0,16.9,30.13,WSW,240,3.0,3.0,32,0.00,,,0.00,Wunderground v.1.13,2013-04-02 19:20:00,
2013-04-02 15:30:00,46.0,16.3,30.13,WSW,248,3.0,6.0,30,0.00,,,0.00,Wunderground v.1.13,2013-04-02 19:30:00,
2013-04-02 15:40:00,46.0,16.3,30.13,SW,219,5.0,5.0,30,0.00,,,0.00,Wunderground v.1.13,2013-04-02 19:40:00,
2013-04-02 15:49:00,45.4,14.1,30.13,SW,229,5.0,5.0,28,0.00,,,0.00,Wunderground v.1.13,2013-04-02 19:49:00,
2013-04-02 16:00:00,46.1,17.1,30.12,West,271,5.0,7.0,31,0.00,,,0.00,Wunderground v.1.13,2013-04-02 20:00:00,
2013-04-02 16:09:00,46.8,16.2,30.12,West,259,4.0,5.0,29,0.00,,,0.00,Wunderground v.1.13,2013-04-02 20:09:00,
2013-04-02 16:20:00,46.4,15.0,30.12,West,279,5.0,5.0,28,0.00,,,0.00,Wunderground v.1.13,2013-04-02 20:20:00,
2013-04-02 16:29:00,46.3,14.9,30.11,WSW,245,6.0,6.0,28,0.00,,,0.00,Wunderground v.1.13,2013-04-02 20:29:00,
2013-04-02 16:30:00,46.3,15.7,30.11,WSW,247,5.0,11.0,29,0.00,,,-99.99,WeatherLink 6.0.2,2013-04-02 20:30:00,
2013-04-02 16:40:00,46.9,16.3,30.11,SW,227,4.0,4.0,29,0.00,,,0.00,Wunderground v.1.13,2013-04-02 20:40:00,
2013-04-02 16:50:00,48.0,18.0,30.11,WSW,242,3.0,7.0,30,0.00,,,0.00,Wunderground v.1.13,2013-04-02 20:50:00,
2013-04-02 17:00:00,47.3,15.8,30.12,South,169,4.0,4.0,28,0.00,,,0.00,Wunderground v.1.13,2013-04-02 21:00:00,
2013-04-02 17:09:00,47.6,16.9,30.11,SW,214,2.0,3.0,29,0.00,,,0.00,Wunderground v.1.13,2013-04-02 21:09:00,
2013-04-02 17:20:00,47.7,16.1,30.12,West,265,4.0,4.0,28,0.00,,,0.00,Wunderground v.1.13,2013-04-02 21:20:00,
2013-04-02 17:30:00,46.5,15.9,30.12,WSW,243,4.0,4.0,29,0.00,,,0.00,Wunderground v.1.13,2013-04-02 21:30:00,
2013-04-02 17:40:00,46.0,15.5,30.12,West,273,5.0,5.0,29,0.00,,,0.00,Wunderground v.1.13,2013-04-02 21:40:00,
2013-04-02 17:50:00,46.7,16.1,30.12,West,268,4.0,6.0,29,0.00,,,0.00,Wunderground v.1.13,2013-04-02 21:50:00,
2013-04-02 18:00:00,46.2,15.6,30.12,WSW,252,4.0,6.0,29,0.00,,,0.00,Wunderground v.1.13,2013-04-02 22:00:00,
2013-04-02 18:09:00,46.3,14.9,30.13,WSW,241,3.0,4.0,28,0.00,,,0.00,Wunderground v.1.13,2013-04-02 22:09:00,
2013-04-02 18:20:00,46.1,15.6,30.13,WSW,248,3.0,4.0,29,0.00,,,0.00,Wunderground v.1.13,2013-04-02 22:20:00,
2013-04-02 18:30:00,45.8,15.3,30.13,WSW,244,4.0,4.0,29,0.00,,,0.00,Wunderground v.1.13,2013-04-02 22:30:00,
2013-04-02 18:40:00,45.2,16.3,30.14,SW,220,4.0,4.0,31,0.00,,,0.00,Wunderground v.1.13,2013-04-02 22:40:00,
2013-04-02 18:50:00,45.0,14.6,30.14,West,261,3.0,4.0,29,0.00,,,0.00,Wunderground v.1.13,2013-04-02 22:50:00,
2013-04-02 19:00:00,44.6,14.3,30.15,West,262,4.0,5.0,29,0.00,,,0.00,Wunderground v.1.13,2013-04-02 23:00:00,
2013-04-02 19:10:00,44.2,13.9,30.15,WSW,249,4.0,6.0,29,0.00,,,0.00,Wunderground v.1.13,2013-04-02 23:10:00,
2013-04-02 19:19:00,43.8,14.3,30.15,WSW,250,5.0,5.0,30,0.00,,,0.00,Wunderground v.1.13,2013-04-02 23:19:00,
2013-04-02 19:30:00,43.5,15.5,30.15,West,265,3.0,3.0,32,0.00,,,0.00,Wunderground v.1.13,2013-04-02 23:30:00,
2013-04-02 19:40:00,43.1,15.9,30.15,West,266,2.0,3.0,33,0.00,,,0.00,Wunderground v.1.13,2013-04-02 23:40:00,
2013-04-02 19:49:00,42.6,16.8,30.15,West,280,2.0,4.0,35,0.00,,,0.00,Wunderground v.1.13,2013-04-02 23:49:00,
2013-04-02 19:59:00,42.5,15.4,30.15,SW,232,3.0,3.0,33,0.00,,,0.00,Wunderground v.1.13,2013-04-02 23:59:00,
2013-04-02 20:00:00,42.4,15.3,30.15,WSW,247,2.0,7.0,33,0.00,,,-99.99,WeatherLink 6.0.2,2013-04-03 00:00:00,
2013-04-02 20:10:00,41.9,16.2,30.15,West,269,1.0,1.0,35,0.00,,,0.00,Wunderground v.1.13,2013-04-03 00:10:00,
2013-04-02 20:20:00,41.3,16.9,30.15,West,269,1.0,2.0,37,0.00,,,0.00,Wunderground v.1.13,2013-04-03 00:20:00,
2013-04-02 20:30:00,41.0,16.7,30.15,West,269,1.0,1.0,37,0.00,,,0.00,Wunderground v.1.13,2013-04-03 00:30:00,
2013-04-02 20:49:00,40.6,16.3,30.16,West,269,1.0,1.0,37,0.00,,,0.00,Wunderground v.1.13,2013-04-03 00:49:00,
2013-04-02 20:59:00,40.2,16.0,30.16,West,269,0.0,0.0,37,0.00,,,0.00,Wunderground v.1.13,2013-04-03 00:59:00,
2013-04-02 21:00:00,40.2,16.6,30.16,West,270,0.0,1.0,38,0.00,,,-99.99,WeatherLink 6.0.2,2013-04-03 01:00:00,
2013-04-02 21:09:00,39.7,17.3,30.16,West,269,0.0,0.0,40,0.00,,,0.00,Wunderground v.1.13,2013-04-03 01:09:00,
2013-04-02 21:20:00,39.3,16.4,30.16,West,269,0.0,0.0,39,0.00,,,0.00,Wunderground v.1.13,2013-04-03 01:20:00,
2013-04-02 21:30:00,38.9,17.2,30.17,West,269,0.0,0.0,41,0.00,,,0.00,Wunderground v.1.13,2013-04-03 01:30:00,
2013-04-02 21:40:00,38.3,17.2,30.18,West,269,0.0,0.0,42,0.00,,,0.00,Wunderground v.1.13,2013-04-03 01:40:00,
2013-04-02 21:50:00,37.8,17.3,30.18,West,269,0.0,0.0,43,0.00,,,0.00,Wunderground v.1.13,2013-04-03 01:50:00,
2013-04-02 22:00:00,37.3,17.4,30.18,West,269,0.0,0.0,44,0.00,,,0.00,Wunderground v.1.13,2013-04-03 02:00:00,
2013-04-02 22:10:00,36.8,18.4,30.17,West,269,0.0,0.0,47,0.00,,,0.00,Wunderground v.1.13,2013-04-03 02:10:00,
2013-04-02 22:20:00,36.1,18.3,30.18,West,269,0.0,0.0,48,0.00,,,0.00,Wunderground v.1.13,2013-04-03 02:20:00,
2013-04-02 22:30:00,35.3,19.9,30.18,West,269,0.0,0.0,53,0.00,,,0.00,Wunderground v.1.13,2013-04-03 02:30:00,
2013-04-02 22:40:00,35.0,18.7,30.19,West,269,0.0,0.0,51,0.00,,,0.00,Wunderground v.1.13,2013-04-03 02:40:00,
2013-04-02 22:49:00,34.8,19.4,30.19,West,269,0.0,0.0,53,0.00,,,0.00,Wunderground v.1.13,2013-04-03 02:49:00,
2013-04-02 22:59:00,34.5,19.1,30.19,West,269,0.0,0.0,53,0.00,,,0.00,Wunderground v.1.13,2013-04-03 02:59:00,
2013-04-02 23:00:00,34.5,20.4,30.20,North,-999,0.0,0.0,56,0.00,,,-99.99,WeatherLink 6.0.2,2013-04-03 03:00:00,
2013-04-02 23:10:00,33.9,19.8,30.19,West,269,0.0,0.0,56,0.00,,,0.00,Wunderground v.1.13,2013-04-03 03:10:00,
2013-04-02 23:19:00,33.5,19.9,30.20,West,269,0.0,0.0,57,0.00,,,0.00,Wunderground v.1.13,2013-04-03 03:19:00,
2013-04-02 23:30:00,33.2,19.6,30.20,West,269,0.0,0.0,57,0.00,,,0.00,Wunderground v.1.13,2013-04-03 03:30:00,
2013-04-02 23:40:00,32.8,20.0,30.20,West,269,0.0,0.0,59,0.00,,,0.00,Wunderground v.1.13,2013-04-03 03:40:00,
2013-04-02 23:49:00,32.5,20.9,30.20,West,269,0.0,0.0,62,0.00,,,0.00,Wunderground v.1.13,2013-04-03 03:49:00,